sat.trackr.live / text

‹ back to catalog

ONEWEB-0497

NORAD 54116 · 2022-138D

PAYLOAD ACTIVE UNKNOWN

§ Identity

Operator
Country
UK
Launch date
2022-10-22
Launch site
SRILR
Launch vehicle
Mass (kg)
RCS (m²)

Purposes: comms

External: N2YO · Heavens-Above · Gunter

§ Orbital elements

Epoch: 2026-05-25T04:16:09.918912Z

Period
109.11 min
Inclination
87.9154°
Eccentricity
0.0001751
Mean motion
13.19726602 rev/d
Perigee alt
1,184.4 km
Apogee alt
1,187.1 km
Semi-major
7,563.9 km
B*
1.6800e-4
RAAN
309.5492°
Arg perigee
92.3864°
Mean anomaly
267.7469°
Rev number
17,377

§ Raw data

ONEWEB-04971 54116U 22138D   26145.17789258  .00000080  00000+0  16800-3 0  99932 54116  87.9154 309.5492 0001751  92.3864 267.7469 13.19726602173774

JSON: /api/v1/satellites/54116 · /tle

For live sub-satellite position, see the globe view (requires WebGL).

§ Visibility from observer

Set your observer location to see the next 7 days of passes ≥ 10°. The values pass through the URL so the page stays shareable.

No JS? Fill the form by hand. The geolocation button needs JavaScript.